{"data":{"norad_id":55292,"intl_designator":"2023-010Z","name":"STARLINK-5325","alt_names":[],"object_type":"PAYLOAD","status":"ACTIVE","operator":null,"country":"US","launch_date":"2023-01-19","launch_site_code":"AFWTR","launch_vehicle":null,"mission":null,"orbit_class":"UNKNOWN","rcs_meters":null,"size_class":null,"mass_kg":null,"dimensions":null,"purposes":["comms"],"wikipedia_slug":null,"has_3d_model":false,"image_url":null,"decayed_at":null,"tle_current":{"epoch":"2026-05-25T03:40:24.771936Z","epoch_age_seconds":65117,"freshness":"FRESH","line1":"1 55292U 23010Z   26145.15306449  .00001619  00000+0  14340-3 0  9990","line2":"2 55292  69.9987 191.6216 0003554 273.6107  86.4645 14.98335430184727","mean_motion":14.9833543,"eccentricity":0.0003554,"inclination_deg":69.9987,"raan_deg":191.6216,"arg_perigee_deg":273.6107,"mean_anomaly_deg":86.4645,"bstar":0.0001434,"rev_number":18472,"period_min":96.10665083185,"perigee_km":569.56900658241,"apogee_km":574.50919175369,"semimajor_km":6950.1760991681,"source":"CELESTRAK","updated_at":"2026-05-25T13:38:17.735455Z"}}}